Location: Artiguedieu
(43.5000°N, 0.5454°E)
Time: 21:09:58
(UTC+00:00)

SR - Pass Details

Date: 08 August 2021
Orbit: 581 x 874 km, 66.7° (Epoch: 20 September)

Event Time Altitude Azimuth Distance (km) Brightness Sun altitude
Exits shadow 03:02:48 - 165° (SSE) 2,971 ? -17.7°
Reaches altitude 10° 03:04:23 10° 157° (SSE) 2,488 ? -17.5°
Maximum altitude 03:08:43 22° 108° (ESE) 1,746 ? -16.9°
Drops below altitude 10° 03:12:54 10° 59° (ENE) 2,400 ? -16.3°
Sets 03:15:44 0° 45° (NE) 3,287 ? -16.0°
